Location: Montreal
(45.5000°N, 73.5833°W)
Time: 20:24:21
(UTC-04:00)

Tiangong 1 - Pass Details

Date: 07 October 2017
Orbit: 294 x 320 km, 42.8° (Epoch: 17 October)

Event Time Altitude Azimuth Distance (km) Brightness Sun altitude
Rises 18:47:37 0° 228° (SW) 2,036 5.7 -5.2°
Reaches altitude 10° 18:49:52 10° 211° (SSW) 1,202 4.1 -5.6°
Maximum altitude 18:51:58 21° 159° (SSE) 778 2.4 -5.9°
Drops below altitude 10° 18:54:05 10° 107° (ESE) 1,193 3.0 -6.3°
Enters shadow 18:54:28 - 103° (ESE) 1,325 3.1 -6.4°
